{"data":{"norad_id":68718,"intl_designator":"2026-081V","name":"STARLINK-36684","alt_names":[],"object_type":"PAYLOAD","status":"ACTIVE","operator":null,"country":"US","launch_date":"2026-04-14","launch_site_code":"AFETR","launch_vehicle":null,"mission":null,"orbit_class":"UNKNOWN","rcs_meters":null,"size_class":null,"mass_kg":null,"dimensions":null,"purposes":["comms"],"wikipedia_slug":null,"has_3d_model":false,"image_url":null,"decayed_at":null,"tle_current":{"epoch":"2026-05-25T04:00:03.998880Z","epoch_age_seconds":64252,"freshness":"FRESH","line1":"1 68718U 26081V   26145.16671295 -.01823754  00000+0 -47045-1 0  9994","line2":"2 68718  53.1610  38.8399 0001048 101.2394 201.0892 15.41832449  5953","mean_motion":15.41832449,"eccentricity":0.0001048,"inclination_deg":53.161,"raan_deg":38.8399,"arg_perigee_deg":101.2394,"mean_anomaly_deg":201.0892,"bstar":-0.047045,"rev_number":595,"period_min":93.395362183093,"perigee_km":439.98660997215,"apogee_km":441.41583846395,"semimajor_km":6818.838224218,"source":"CELESTRAK","updated_at":"2026-05-25T13:38:22.001838Z"}}}